Погода в Шпикулове

Россия / Тамбовская область     51°44′51″N   41°52′21″E
темп.,
°C
ветер,
м/с
пор.,
м/с
влажн.,
%
обл.,
%
осадки,
мм/ч
давл.,
гПа
погр.,
м
12 апреля, пн
пн1200:00+6св51096100 0.0 1027225
03:00+6св51096100 0.0 1028202
06:00+6всв51293100 0.0 1027212
09:00+12в697374 0.0 1027319
12:00+20вюв7103992 0.0 1026886
15:00+21вюв71137100 0.0 10261542
18:00+18вюв6124566 0.0 1026335
21:00+13вюв4126044 0.0 1027195
13 апреля, вт
вт1300:00+12вюв5156336 0.0 1028281
03:00+9вюв5136564 0.0 1028235
06:00+8вюв4106914 0.0 1028164
09:00+14вюв6104774 0.0 1028358
12:00+19юв71031100 0.0 10271016
15:00+20юв8102967 0.0 10261479
18:00+17вюв611413 0.0 1025360
21:00+12вюв4125973 0.0 1026200
14 апреля, ср
ср1400:00+10вюв41268100 0.0 1025199
03:00+9вюв41270100 0.0 1024224
06:00+8вюв4126993 0.0 1023210
09:00+13вюв6949100 0.0 1022436
12:00+18юв683695 0.0 10211009
15:00+20юв6730100 0.0 10191858
18:00+17вюв51043100 0.0 1019297
21:00+12вюв4754100 0.0 101991
15 апреля, чт
чт1500:00+11вюв476299 0.0 1018108
03:00+9вюв47726 0.0 101894
06:00+9вюв377717 0.0 1018102
09:00+15вюв57555 0.0 1017417
12:00+19вюв564214 0.0 10161063
15:00+21юв453250 0.0 10151896
18:00+19в334397 0.0 101453
21:00+14ююз3465100 0.3 101586
16 апреля, пт
пт1600:00+12ссв3368100 0.2 101444
03:00+11св117460 0.2 101412
06:00+10в2272100 0.0 101517
09:00+14вюв3458100 0.0 1015299
12:00+18вюв4544100 0.0 1015901
15:00+20вюв3438100 0.0 10152218
18:00+18юв1146100 0.0 101512
21:00+14вюв225592 0.0 101621